Columbia Metropolitan Airport Columbia US
ICAO: KCAE
IATA: CAE
Category: Large
Scheduled Services: Yes

Elevation: 236 ft
TransAlt. 18000 ft.

Airport Communications:
APP/DEP:124.15
ATIS:120.15
CLNC DEL:119.75
GND:121.9
ANDERSON RDO:122.65
TWR:119.5
UNICOM:122.95

KCAE Zoom In..

If you have problems with the map follow the link
https://www.worldairports.se/pages/airport.php?
ICAO=KCAE

Runways:

(A) RW 05 length 8001 ft width 150 ft
ILS 108.95 / hdg 50

(B) RW 11 length 8601 ft width 150 ft
ILS 110.30 / hdg 110

(C) RW 23 length 8001 ft width 150 ft
---- / hdg 230

(D) RW 29 length 8601 ft width 150 ft
ILS 108.30 / hdg 290

Location; KCAE
Day. 14 / Time. 10.56 Zulu
* Altimeter: 30.27
* Temperature: 11° c. 51.8°f.
* Wind from: 060° Speed 06 kn.
Dewpoint: 08° c.
Visibility: 10 Statute Miles.
Clouds: Overcast 11000 ft.
Conditions: Light Rain.

KCAE 141056Z 06006KT 10SM -RA OVC110 11/08 A3027 RMK AO2 SLP249 P0000 T01060083


Wind From 060°
Speed 06 kn.

 
 
jpsmedia.com for Web Design worldairports.se 2018   terms of use